Location: Del Amo
(33.8464°N, 118.2104°W)
Time: 20:57:42
(UTC+00:00)

Courier 1B Rocket - Pass Details

Date: 20 September 2024
Orbit: 920 x 1201 km, 28.3° (Epoch: 13 October)

Event Time Altitude Azimuth Distance (km) Brightness Sun altitude
Rises 02:33:38 0° 269° (W) 3,743 10.2 -9.3°
Reaches altitude 10° 02:36:35 10° 259° (WSW) 2,836 8.7 -9.9°
Maximum altitude 02:42:30 30° 200° (SSW) 1,828 6.6 -11.1°
Drops below altitude 10° 02:48:45 10° 142° (SE) 3,008 7.1 -12.4°
Enters shadow 02:49:47 - 139° (SE) 3,313 7.3 -12.6°
